ASIASAT 7

Last updated on Oct. 24, 2020, 5:54 a.m. UTC

1 37933U 11069A   20297.85175108 -.00000349  00000-0  00000-0 0  9994
2 37933   0.0104 226.3919 0001543 294.5422 283.9018  1.00268790 24173
UTC
Height (km)
Latitude
Longitude
Inclination
Orbital Period
UTC large
Height (km)
Speed (km/s)
/
Latitude / Longitude
Inclination (degrees)
Orbital Period (minutes)
Azimuth
Elevation
Range (km)
Doppler Factor
iOS Compass Heading
iOS Angle

Next 30 passes for location: Hong Kong

Rise time Rise Azimuth (degrees) Set time Set Azimuth (degrees) Duration Max altitude (degrees)

No matching passes for this satellites